| time (UTC) | temp C | wind direction | speed KPH | gust KPH | rain 1hr cm | rain 24hr cm | rain mn cm | humidity % | barometer mb |
| 20260505041003 | 19 | 45 | 0.0 | 1.6 | 0.00 | 0.00 | 0.00 | 63 | 1021.4 |
| 20260505040005 | 19 | 45 | 0.0 | 4.8 | 0.00 | 0.00 | 0.00 | 61 | 1021.5 |
| 20260505035003 | 20 | 0 | 1.6 | 3.2 | 0.00 | 0.00 | 0.00 | 58 | 1021.5 |
| 20260505034003 | 20 | 0 | 0.0 | 1.6 | 0.00 | 0.00 | 0.00 | 59 | 1021.5 |
| 20260505033003 | 20 | 14 | 1.6 | 3.2 | 0.00 | 0.00 | 0.00 | 58 | 1021.6 |
| 20260505032007 | 20 | 297 | 1.6 | 8.0 | 0.00 | 0.00 | 0.00 | 57 | 1021.5 |
| 20260505031003 | 20 | 333 | 3.2 | 8.0 | 0.00 | 0.00 | 0.00 | 59 | 1021.5 |
| 20260505030005 | 20 | 332 | 1.6 | 4.8 | 0.00 | 0.00 | 0.00 | 57 | 1021.4 |
| 20260505025005 | 21 | 288 | 1.6 | 9.7 | 0.00 | 0.00 | 0.00 | 55 | 1021.4 |
| 20260505024004 | 21 | 6 | 3.2 | 9.7 | 0.00 | 0.00 | 0.00 | 57 | 1021.5 |
| 20260505023003 | 21 | 242 | 3.2 | 8.0 | 0.00 | 0.00 | 0.00 | 56 | 1021.5 |
| 20260505022003 | 21 | 345 | 3.2 | 4.8 | 0.00 | 0.00 | 0.00 | 55 | 1021.4 |
| 20260505021003 | 23 | 321 | 1.6 | 1.6 | 0.00 | 0.00 | 0.00 | 52 | 1021.3 |
| 20260505020004 | 23 | 259 | 0.0 | 4.8 | 0.00 | 0.00 | 0.00 | 47 | 1021.5 |
| 20260505015004 | 23 | 101 | 1.6 | 4.8 | 0.00 | 0.00 | 0.00 | 49 | 1021.6 |
| 20260505014004 | 24 | 54 | 1.6 | 4.8 | 0.00 | 0.00 | 0.00 | 49 | 1021.6 |
| 20260505013003 | 23 | 201 | 1.6 | 4.8 | 0.00 | 0.00 | 0.00 | 47 | 1021.7 |
| 20260505012003 | 23 | 93 | 1.6 | 3.2 | 0.00 | 0.00 | 0.00 | 51 | 1021.8 |
| 20260505011003 | 23 | 78 | 1.6 | 3.2 | 0.00 | 0.00 | 0.00 | 52 | 1021.9 |
| 20260505010004 | 24 | 57 | 0.0 | 4.8 | 0.00 | 0.00 | 0.00 | 51 | 1022.0 |
| 20260505005004 | 23 | 68 | 1.6 | 4.8 | 0.00 | 0.00 | 0.00 | 55 | 1022.4 |
| 20260505004004 | 21 | 286 | 1.6 | 4.8 | 0.00 | 0.00 | 0.00 | 56 | 1022.4 |
| 20260505003004 | 21 | 33 | 4.8 | 4.8 | 0.00 | 0.00 | 0.00 | 54 | 1022.7 |
| 20260505002004 | 22 | 350 | 1.6 | 1.6 | 0.00 | 0.00 | 0.00 | 55 | 1022.8 |
| 20260505001004 | 21 | 0 | 0.0 | 4.8 | 0.00 | 0.00 | 0.00 | 58 | 1022.8 |
| 20260505000004 | 22 | 45 | 0.0 | 4.8 | 0.00 | 0.00 | 0.00 | 56 | 1023.0 |
| 20260504235004 | 22 | 82 | 0.0 | 9.7 | 0.00 | 0.00 | 0.00 | 54 | 1023.0 |
| 20260504234003 | 23 | 11 | 0.0 | 3.2 | 0.00 | 0.00 | 0.00 | 56 | 1023.1 |
| 20260504233003 | 23 | 56 | 0.0 | 1.6 | 0.00 | 0.00 | 0.00 | 55 | 1023.2 |
| 20260504232004 | 23 | 69 | 1.6 | 4.8 | 0.00 | 0.00 | 0.00 | 54 | 1023.2 |
| 20260504231004 | 22 | 225 | 0.0 | 4.8 | 0.00 | 0.00 | 0.00 | 58 | 1023.3 |
| 20260504230003 | 22 | 39 | 1.6 | 8.0 | 0.00 | 0.00 | 0.00 | 56 | 1023.5 |
| 20260504225004 | 21 | 45 | 1.6 | 4.8 | 0.00 | 0.00 | 0.00 | 59 | 1023.4 |
| 20260504224004 | 21 | 86 | 1.6 | 4.8 | 0.00 | 0.00 | 0.00 | 60 | 1023.4 |
| 20260504223004 | 20 | 45 | 1.6 | 4.8 | 0.00 | 0.00 | 0.00 | 62 | 1023.4 |
| 20260504222003 | 20 | 42 | 1.6 | 4.8 | 0.00 | 0.00 | 0.00 | 62 | 1023.4 |
| 20260504221004 | 20 | 268 | 0.0 | 4.8 | 0.00 | 0.00 | 0.00 | 64 | 1023.4 |
| 20260504220004 | 20 | 123 | 1.6 | 4.8 | 0.00 | 0.00 | 0.00 | 67 | 1023.4 |
| 20260504215004 | 18 | 119 | 0.0 | 4.8 | 0.00 | 0.00 | 0.00 | 72 | 1023.4 |
| 20260504214003 | 18 | 290 | 1.6 | 4.8 | 0.00 | 0.00 | 0.00 | 75 | 1023.4 |
| 20260504213007 | 16 | 14 | 0.0 | 4.8 | 0.00 | 0.00 | 0.00 | 83 | 1023.4 |
| 20260504212006 | 14 | 271 | 1.6 | 4.8 | 0.00 | 0.00 | 0.00 | 87 | 1023.5 |
| 20260504211005 | 13 | 301 | 0.0 | 4.8 | 0.00 | 0.00 | 0.00 | 89 | 1023.5 |
| 20260504210005 | 13 | 172 | 1.6 | 9.7 | 0.00 | 0.00 | 0.00 | 90 | 1023.4 |
| 20260504205005 | 12 | 225 | 1.6 | 9.7 | 0.00 | 0.00 | 0.00 | 90 | 1023.4 |
| 20260504204005 | 12 | 174 | 0.0 | 3.2 | 0.00 | 0.00 | 0.00 | 90 | 1023.3 |
| 20260504203005 | 12 | 181 | 1.6 | 8.0 | 0.00 | 0.00 | 0.00 | 90 | 1023.5 |
| 20260504202005 | 11 | 227 | 1.6 | 3.2 | 0.00 | 0.00 | 0.00 | 91 | 1023.3 |
| 20260504201005 | 11 | 248 | 0.0 | 1.6 | 0.00 | 0.00 | 0.00 | 90 | 1023.5 |
| 20260504200003 | 11 | 89 | 1.6 | 3.2 | 0.00 | 0.00 | 0.00 | 90 | 1023.3 |
| 20260504195004 | 11 | 232 | 0.0 | 4.8 | 0.00 | 0.00 | 0.00 | 90 | 1023.3 |
| 20260504194004 | 11 | 285 | 1.6 | 8.0 | 0.00 | 0.00 | 0.00 | 90 | 1023.3 |
| 20260504193004 | 11 | 35 | 3.2 | 9.7 | 0.00 | 0.00 | 0.00 | 91 | 1023.3 |
| 20260504192004 | 11 | 2 | 4.8 | 9.7 | 0.00 | 0.00 | 0.00 | 92 | 1023.3 |
| 20260504191003 | 11 | 174 | 1.6 | 8.0 | 0.00 | 0.00 | 0.00 | 92 | 1023.3 |
| 20260504190004 | 11 | 45 | 1.6 | 4.8 | 0.00 | 0.00 | 0.00 | 93 | 1023.3 |
| 20260504185004 | 11 | 228 | 1.6 | 3.2 | 0.00 | 0.00 | 0.00 | 93 | 1023.2 |
| 20260504184004 | 11 | 161 | 1.6 | 4.8 | 0.00 | 0.00 | 0.00 | 93 | 1023.3 |
| 20260504183004 | 11 | 248 | 1.6 | 3.2 | 0.00 | 0.00 | 0.00 | 94 | 1023.2 |
| 20260504182004 | 10 | 185 | 1.6 | 4.8 | 0.00 | 0.00 | 0.00 | 93 | 1023.2 |
| 20260504181004 | 10 | 167 | 0.0 | 4.8 | 0.00 | 0.00 | 0.00 | 93 | 1023.4 |
| 20260504180004 | 10 | 164 | 0.0 | 1.6 | 0.00 | 0.00 | 0.00 | 93 | 1023.4 |
| 20260504175004 | 11 | 85 | 0.0 | 1.6 | 0.00 | 0.00 | 0.00 | 93 | 1023.4 |
| 20260504174004 | 10 | 199 | 1.6 | 1.6 | 0.00 | 0.00 | 0.00 | 93 | 1023.3 |
| 20260504173004 | 10 | 306 | 0.0 | 1.6 | 0.00 | 0.00 | 0.00 | 93 | 1023.4 |
| 20260504172004 | 11 | 45 | 0.0 | 0.0 | 0.00 | 0.00 | 0.00 | 92 | 1023.4 |
| 20260504171003 | 11 | 45 | 0.0 | 1.6 | 0.00 | 0.00 | 0.00 | 92 | 1023.3 |
| 20260504151006 | 10 | 15 | 1.6 | 3.2 | 0.00 | 0.00 | 0.00 | 97 | 1024.0 |
| 20260504141004 | 10 | 180 | 0.0 | 1.6 | 0.00 | 0.00 | 0.00 | 95 | 1024.7 |
| 20260504082003 | 12 | 135 | 0.0 | 1.6 | 0.00 | 0.00 | 0.00 | 89 | 1025.1 |
| 20260504081003 | 12 | 135 | 0.0 | 4.8 | 0.00 | 0.00 | 0.00 | 89 | 1025.1 |
| 20260504050004 | 16 | 0 | 0.0 | 1.6 | 0.00 | 0.00 | 0.00 | 74 | 1024.2 |